Location: London
(51.5074°N, 0.1278°W)
Time: 20:12:43
(UTC+01:00)

DELFI C3 - Visible Passes

Search period start: 29 September 2020 00:00
Search period end: 09 October 2020 00:00
Orbit: 535 x 550 km, 97.4° (Epoch: 28 September)

Date Brightness Start Highest point End Pass type
(mag) Time Alt. Az. Time Alt. Az. Time Alt. Az.
29 Sep ? 20:06:42 20° SE 20:09:07 45° ENE 20:12:53 10° N visible
29 Sep ? 21:42:15 16° SW 21:43:56 20° W 21:46:54 10° NW visible
30 Sep ? 20:00:10 19° SE 20:02:31 38° ENE 20:06:11 10° N visible
30 Sep ? 21:35:44 18° SW 21:37:15 23° W 21:40:26 10° NW visible
01 Oct ? 19:53:38 18° ESE 19:55:55 33° ENE 19:59:29 10° N visible
01 Oct ? 21:29:12 22° SW 21:30:34 26° W 21:33:56 10° NW visible
02 Oct ? 19:47:06 17° ESE 19:49:18 29° ENE 19:52:45 10° N visible
02 Oct ? 21:22:40 25° SW 21:23:52 31° W 21:27:25 10° NNW visible
03 Oct ? 19:40:33 16° ESE 19:42:42 26° ENE 19:46:00 10° N visible
03 Oct ? 21:16:07 30° SW 21:17:12 35° W 21:20:51 10° NNW visible
04 Oct ? 19:34:01 15° ESE 19:36:07 23° ENE 19:39:14 10° N visible
04 Oct ? 21:09:34 35° SW 21:10:30 41° W 21:14:17 10° NNW visible
05 Oct ? 19:27:28 14° E 19:29:31 20° ENE 19:32:26 10° NNE visible
05 Oct ? 21:03:01 41° SW 21:03:49 48° W 21:07:41 10° NNW visible
06 Oct ? 19:20:54 13° E 19:22:55 18° ENE 19:25:37 10° NNE visible
06 Oct ? 20:56:28 49° SW 20:57:09 57° W 21:01:04 10° NNW visible
07 Oct ? 19:14:20 12° E 19:16:19 16° ENE 19:18:45 10° NNE visible
07 Oct ? 20:49:55 58° SSW 20:50:28 67° WSW 20:54:26 10° NNW visible
08 Oct ? 19:07:47 10° E 19:09:44 14° ENE 19:11:49 10° NNE visible
08 Oct ? 20:43:20 67° SSW 20:43:47 79° WSW 20:47:46 10° NNW visible
